When you browse on this site, cookies collect data to enhance your experience and personalize the content and advertising you see.
Visit our Privacy Policy to learn more. By continuing to use the site, you agree to this use of cookies and data.

Meteo orario Dobropole

Oggi, 23 Settembre, Mercoledi

Tempo Temperatura Precipitazioni Vento Pressione Umidità
00:00 +12°C° 0 mm 0 m/s 750 mm Hg 37%
01:00 +12°C° 0 mm 0 m/s 750 mm Hg 38%
02:00 +11°C° 0 mm 0 m/s 750 mm Hg 38%
03:00 +12°C° 0 mm 1 m/s 750 mm Hg 38%
04:00 +12°C° 0 mm 1 m/s 750 mm Hg 39%
05:00 +12°C° 0 mm 1 m/s 750 mm Hg 39%
06:00 +14°C° 0 mm 1 m/s 750 mm Hg 35%
07:00 +17°C° 0 mm 2 m/s 750 mm Hg 30%
08:00 +19°C° 0 mm 2 m/s 750 mm Hg 26%
09:00 +21°C° 0 mm 2 m/s 750 mm Hg 23%
10:00 +24°C° 0 mm 2 m/s 750 mm Hg 20%
11:00 +26°C° 0 mm 2 m/s 749 mm Hg 18%
12:00 +27°C° 0 mm 2 m/s 749 mm Hg 16%
13:00 +27°C° 0 mm 2 m/s 749 mm Hg 15%
14:00 +28°C° 0 mm 2 m/s 748 mm Hg 14%
15:00 +27°C° 0 mm 2 m/s 748 mm Hg 15%
16:00 +25°C° 0 mm 2 m/s 748 mm Hg 17%
17:00 +24°C° 0 mm 2 m/s 747 mm Hg 19%
18:00 +21°C° 0 mm 2 m/s 747 mm Hg 21%
19:00 +19°C° 0 mm 2 m/s 747 mm Hg 24%
20:00 +17°C° 0 mm 2 m/s 748 mm Hg 26%
21:00 +17°C° 0 mm 2 m/s 747 mm Hg 27%
22:00 +16°C° 0 mm 2 m/s 747 mm Hg 28%
23:00 +16°C° 0 mm 3 m/s 747 mm Hg 30%

Domani, 24 Settembre, Giovedi

Tempo Temperatura Precipitazioni Vento Pressione Umidità
00:00 +15°C° 0 mm 2 m/s 747 mm Hg 30%
01:00 +15°C° 0 mm 2 m/s 747 mm Hg 31%
02:00 +14°C° 0 mm 2 m/s 748 mm Hg 32%
03:00 +14°C° 0 mm 2 m/s 747 mm Hg 34%
04:00 +14°C° 0 mm 2 m/s 747 mm Hg 35%
05:00 +13°C° 0 mm 2 m/s 747 mm Hg 37%
06:00 +16°C° 0 mm 3 m/s 747 mm Hg 34%
07:00 +18°C° 0 mm 3 m/s 748 mm Hg 30%
08:00 +21°C° 0 mm 3 m/s 748 mm Hg 27%
09:00 +23°C° 0 mm 4 m/s 748 mm Hg 26%
10:00 +26°C° 0 mm 4 m/s 747 mm Hg 25%
11:00 +28°C° 0 mm 4 m/s 747 mm Hg 24%
12:00 +29°C° 0 mm 4 m/s 747 mm Hg 23%
13:00 +29°C° 0 mm 4 m/s 747 mm Hg 22%
14:00 +30°C° 0 mm 4 m/s 747 mm Hg 22%
15:00 +28°C° 0 mm 3 m/s 746 mm Hg 24%
16:00 +27°C° 0 mm 3 m/s 746 mm Hg 27%
17:00 +25°C° 0 mm 2 m/s 746 mm Hg 30%
18:00 +24°C° 0 mm 2 m/s 746 mm Hg 33%
19:00 +21°C° 0 mm 3 m/s 746 mm Hg 35%
20:00 +19°C° 0 mm 3 m/s 747 mm Hg 38%
21:00 +19°C° 0 mm 3 m/s 746 mm Hg 39%
22:00 +18°C° 0 mm 3 m/s 746 mm Hg 40%
23:00 +18°C° 0 mm 3 m/s 746 mm Hg 41%

Dopodomani, 25 Settembre, Venerdi

Tempo Temperatura Precipitazioni Vento Pressione Umidità
00:00 +17°C° 0 mm 3 m/s 746 mm Hg 41%
01:00 +17°C° 0 mm 3 m/s 746 mm Hg 42%
02:00 +16°C° 0 mm 3 m/s 746 mm Hg 42%
03:00 +16°C° 0 mm 3 m/s 746 mm Hg 44%
04:00 +14°C° 0 mm 3 m/s 746 mm Hg 46%
05:00 +14°C° 0 mm 3 m/s 746 mm Hg 48%
06:00 +17°C° 0 mm 3 m/s 746 mm Hg 44%
07:00 +19°C° 0 mm 4 m/s 746 mm Hg 40%
08:00 +21°C° 0 mm 5 m/s 747 mm Hg 37%
09:00 +23°C° 0 mm 5 m/s 746 mm Hg 34%
10:00 +26°C° 0 mm 5 m/s 746 mm Hg 31%
11:00 +28°C° 0 mm 5 m/s 746 mm Hg 28%
12:00 +28°C° 0 mm 5 m/s 746 mm Hg 27%
13:00 +29°C° 0 mm 5 m/s 745 mm Hg 26%
14:00 +29°C° 0 mm 5 m/s 745 mm Hg 25%
15:00 +28°C° 0 mm 4 m/s 745 mm Hg 28%
16:00 +26°C° 0 mm 4 m/s 744 mm Hg 32%
17:00 +25°C° 0 mm 3 m/s 744 mm Hg 36%
18:00 +24°C° 0 mm 3 m/s 744 mm Hg 38%
19:00 +21°C° 0 mm 4 m/s 744 mm Hg 40%
20:00 +20°C° 0 mm 4 m/s 744 mm Hg 42%
21:00 +19°C° 0 mm 4 m/s 744 mm Hg 42%
22:00 +18°C° 0 mm 4 m/s 744 mm Hg 42%
23:00 +18°C° 0 mm 4 m/s 744 mm Hg 42%

26 Settembre, Sabato

Tempo Temperatura Precipitazioni Vento Pressione Umidità
00:00 +17°C° 0 mm 4 m/s 744 mm Hg 44%
01:00 +17°C° 0 mm 4 m/s 743 mm Hg 46%
02:00 +15°C° 0 mm 4 m/s 743 mm Hg 48%
03:00 +15°C° 0 mm 4 m/s 743 mm Hg 50%
04:00 +14°C° 0 mm 4 m/s 743 mm Hg 51%
05:00 +14°C° 0 mm 4 m/s 743 mm Hg 53%
06:00 +16°C° 0 mm 5 m/s 743 mm Hg 47%
07:00 +19°C° 0 mm 5 m/s 743 mm Hg 42%
08:00 +21°C° 0 mm 6 m/s 743 mm Hg 36%
09:00 +23°C° 0 mm 6 m/s 743 mm Hg 32%
10:00 +26°C° 0 mm 6 m/s 743 mm Hg 29%
11:00 +28°C° 0 mm 6 m/s 743 mm Hg 25%
12:00 +29°C° 0 mm 7 m/s 743 mm Hg 21%
13:00 +30°C° 0 mm 7 m/s 743 mm Hg 18%
14:00 +32°C° 0 mm 7 m/s 743 mm Hg 15%
15:00 +29°C° 0 mm 6 m/s 743 mm Hg 16%
16:00 +28°C° 0 mm 5 m/s 742 mm Hg 18%
17:00 +27°C° 0 mm 4 m/s 742 mm Hg 19%
18:00 +25°C° 0 mm 5 m/s 743 mm Hg 23%
19:00 +23°C° 0 mm 6 m/s 743 mm Hg 28%
20:00 +22°C° 0 mm 7 m/s 743 mm Hg 32%
21:00 +21°C° 0 mm 7 m/s 743 mm Hg 38%
22:00 +20°C° 0 mm 7 m/s 743 mm Hg 44%
23:00 +18°C° 0 mm 7 m/s 744 mm Hg 50%

27 Settembre, Domenica

Tempo Temperatura Precipitazioni Vento Pressione Umidità
00:00 +17°C° 0 mm 7 m/s 744 mm Hg 50%
01:00 +17°C° 0 mm 7 m/s 744 mm Hg 49%
02:00 +16°C° 0 mm 7 m/s 744 mm Hg 49%
03:00 +16°C° 0 mm 7 m/s 744 mm Hg 48%
04:00 +15°C° 0 mm 7 m/s 744 mm Hg 48%
05:00 +15°C° 0 mm 8 m/s 744 mm Hg 47%
06:00 +16°C° 0 mm 8 m/s 744 mm Hg 44%
07:00 +17°C° 0 mm 9 m/s 744 mm Hg 42%
08:00 +18°C° 0 mm 10 m/s 744 mm Hg 39%
09:00 +21°C° 0 mm 10 m/s 744 mm Hg 35%
10:00 +23°C° 0 mm 10 m/s 744 mm Hg 30%
11:00 +26°C° 0 mm 10 m/s 744 mm Hg 26%
12:00 +27°C° 0 mm 10 m/s 744 mm Hg 25%
13:00 +28°C° 0 mm 10 m/s 743 mm Hg 23%
14:00 +28°C° 0 mm 10 m/s 743 mm Hg 22%
15:00 +28°C° 0 mm 9 m/s 743 mm Hg 24%
16:00 +27°C° 0 mm 8 m/s 743 mm Hg 26%
17:00 +26°C° 0 mm 7 m/s 743 mm Hg 28%
18:00 +24°C° 0.1 mm 7 m/s 743 mm Hg 29%
19:00 +23°C° 0.1 mm 8 m/s 744 mm Hg 31%
20:00 +23°C° 0.1 mm 9 m/s 744 mm Hg 32%
21:00 +22°C° 0.1 mm 8 m/s 744 mm Hg 35%
22:00 +20°C° 0.1 mm 8 m/s 744 mm Hg 38%
23:00 +18°C° 0.1 mm 8 m/s 744 mm Hg 41%

28 Settembre, Lunedi

Tempo Temperatura Precipitazioni Vento Pressione Umidità
00:00 +17°C° 0.6 mm 8 m/s 744 mm Hg 49%
01:00 +17°C° 0.6 mm 7 m/s 744 mm Hg 56%
02:00 +16°C° 0.6 mm 7 m/s 744 mm Hg 64%
03:00 +15°C° 0.8 mm 7 m/s 744 mm Hg 67%
04:00 +15°C° 0.8 mm 6 m/s 745 mm Hg 70%
05:00 +14°C° 0.8 mm 6 m/s 745 mm Hg 73%
06:00 +14°C° 0.4 mm 5 m/s 745 mm Hg 71%
07:00 +15°C° 0.4 mm 5 m/s 745 mm Hg 69%
08:00 +15°C° 0.4 mm 5 m/s 745 mm Hg 66%
09:00 +15°C° 0.5 mm 5 m/s 745 mm Hg 68%
10:00 +15°C° 0.5 mm 5 m/s 745 mm Hg 69%
11:00 +16°C° 0.5 mm 5 m/s 745 mm Hg 70%
12:00 +16°C° 0.1 mm 5 m/s 745 mm Hg 66%
13:00 +17°C° 0.1 mm 5 m/s 745 mm Hg 62%
14:00 +19°C° 0.1 mm 5 m/s 744 mm Hg 58%
15:00 +19°C° 0 mm 4 m/s 744 mm Hg 60%
16:00 +19°C° 0 mm 4 m/s 744 mm Hg 62%
17:00 +18°C° 0 mm 4 m/s 744 mm Hg 65%
18:00 +17°C° 0.3 mm 4 m/s 744 mm Hg 72%
19:00 +16°C° 0.3 mm 5 m/s 744 mm Hg 79%
20:00 +15°C° 0.3 mm 5 m/s 744 mm Hg 86%
21:00 +14°C° 0.4 mm 4 m/s 744 mm Hg 86%
22:00 +14°C° 0.4 mm 3 m/s 744 mm Hg 87%
23:00 +14°C° 0.4 mm 2 m/s 744 mm Hg 87%
Mostrare altro